This is the latest recevied weather packets stored in our database for station/object W7PLC. If no packets are shown the sender has not sent any weather packets the latest 10 day(s).
| Time | Temp. | Humidity | Pressure | Rain* | Wind** | Luminosity | Snow |
|---|---|---|---|---|---|---|---|
| 1777590714 | 26.67° C | 35% | 1015 hPa | 0 mm | - | 621 W/m² | - |
| 1777590410 | 26.67° C | 35% | 1015.3 hPa | 0 mm | - | 608 W/m² | - |
| 1777590108 | 26.67° C | 36% | 1015.2 hPa | 0 mm | - | 681 W/m² | - |
| 1777589804 | 26.11° C | 37% | 1015.3 hPa | 0 mm | - | 724 W/m² | - |
| 1777589503 | 25° C | 38% | 1015.3 hPa | 0 mm | - | 541 W/m² | - |
| 1777589198 | 25° C | 39% | 1015.6 hPa | 0 mm | - | 359 W/m² | - |
| 1777588895 | 25.56° C | 39% | 1015.4 hPa | 0 mm | - | 219 W/m² | - |
| 1777588591 | 25.56° C | 40% | 1015.5 hPa | 0 mm | - | 335 W/m² | - |
| 1777588286 | 25° C | 39% | 1015.4 hPa | 0 mm | - | 508 W/m² | - |
| 1777587982 | 25° C | 40% | 1015.7 hPa | 0 mm | - | 339 W/m² | - |
| 1777587678 | 25° C | 40% | 1015.5 hPa | 0 mm | - | 297 W/m² | - |
| 1777587378 | 25° C | 40% | 1015.7 hPa | 0 mm | - | 234 W/m² | - |
| 1777587074 | 25° C | 40% | 1015.5 hPa | 0 mm | - | 242 W/m² | - |
| 1777586770 | 25.56° C | 41% | 1015.5 hPa | 0 mm | - | 442 W/m² | - |
| 1777586465 | 25.56° C | 42% | 1015.5 hPa | 0 mm | - | 575 W/m² | - |
| 1777586161 | 25.56° C | 41% | 1015.7 hPa | 0 mm | - | 494 W/m² | - |
| 1777585859 | 26.11° C | 38% | 1015.9 hPa | 0 mm | - | 441 W/m² | - |
| 1777585559 | 26.11° C | 41% | 1016 hPa | 0 mm | - | 399 W/m² | - |
| 1777585255 | 25.56° C | 42% | 1016.1 hPa | 0 mm | - | 640 W/m² | - |
| 1777584950 | 25.56° C | 43% | 1016.1 hPa | 0 mm | - | 724 W/m² | - |
| 1777584647 | 25° C | 45% | 1016.1 hPa | 0 mm | - | 583 W/m² | - |
| 1777584344 | 24.44° C | 44% | 1016.1 hPa | 0 mm | - | 563 W/m² | - |
| 1777584040 | 25° C | 42% | 1016.2 hPa | 0 mm | - | 585 W/m² | - |
| 1777583735 | 25° C | 45% | 1016.3 hPa | 0 mm | - | 492 W/m² | - |
| 1777583434 | 24.44° C | 47% | 1016.4 hPa | 0 mm | - | 399 W/m² | - |
* Rain latest hour (hover to see other rain measurements)
** Current wind speed in m/s (hover to see current wind gust speed)